Weather Roundup
Issued by NWS Chicago, IL

Home | Current Version | Previous Version | Graphics & Text | Print | Product List | Glossary On
Versions: 1 2 3 4 5 6 7 8 9 10 11 12 13 14 15 16 17 18 19 20 21 22 23 24 25 26 27 28 29 30 31 32 33 34 35 36 37 38 39 40 41 42 43 44 45 46 47 48 49 50
112
NZUS59 KLOT 290609
HRRLOT

CHICAGO AREA WEATHER ROUNDUP
NATIONAL WEATHER SERVICE CHICAGO/ROMEOVILLE IL
100 AM CDT MON MAY 29 2017

NOTE: "FAIR" INDICATES FEW OR NO CLOUDS BELOW 12,000 FEET WITH NO
SIGNIFICANT WEATHER AND/OR OBSTRUCTIONS TO VISIBILITY.

* THESE STATIONS ARE NOT UNDER NWS QUALITY CONTROL. THEY ALSO MAY NOT
  REPORT WEATHER SUCH AS PRECIPITATION OR FOG.

ILZ005-006-012>014-019>023-290700-
NORTHEAST ILLINOIS

CITY           SKY/WX    TMP DP  RH WIND       PRES   REMARKS
OHARE          PTCLDY    63  49  60 SW5       29.76R
6HR MIN TEMP:  61; 6HR MAX TEMP:  75;

MIDWAY         MOCLDY    65  50  58 SW6       29.77R
6HR MIN TEMP:  64; 6HR MAX TEMP:  76;

AURORA         CLOUDY    61  53  75 SW3       29.78S
6HR MIN TEMP:  58; 6HR MAX TEMP:  75;

LANSING*       MOCLDY    57  52  84 S5        29.79R
JOLIET*        CLOUDY    60  56  87 CALM      29.79R
WAUKEGAN       PTCLDY    58  49  72 SW5       29.74S
6HR MIN TEMP:  53; 6HR MAX TEMP:  73;

DUPAGE AIRPORT MOCLDY    59  54  83 S3        29.76S
6HR MIN TEMP:  58; 6HR MAX TEMP:  74;

WHEELING       CLOUDY    61  50  67 CALM      29.77R
6HR MIN TEMP:  58; 6HR MAX TEMP:  74;

KANKAKEE*      MOCLDY    59  53  79 CALM      29.82R
MORRIS*        CLOUDY    62  50  65 CALM      29.78S
LEWIS AIRPORT* CLOUDY    62  55  78 SW5       29.79R
NORTHERLY ISL    N/A     66  47  50 SW3         N/A
$$

WIZ051-052-058>065-066-070>072-290700-
SOUTHEAST WISCONSIN

CITY           SKY/WX    TMP DP  RH WIND       PRES   REMARKS
MILWAUKEE      PTCLDY    62  50  64 SW6       29.73R
6HR MIN TEMP:  61; 6HR MAX TEMP:  75;

KENOSHA*       CLOUDY    58  49  72 SW6       29.74S
RACINE*        CLEAR     59  47  64 SW6       29.75S
WAUKESHA       CLEAR     55  45  67 SW3       29.74S
WEST BEND      CLEAR     57  45  62 SW5       29.72R
$$

INZ001>003-010>013-019-020-290700-
NORTHWEST INDIANA

CITY           SKY/WX    TMP DP  RH WIND       PRES   REMARKS
GARY*          MOCLDY    63  52  67 SW3       29.79R
6HR MIN TEMP:  55; 6HR MAX TEMP:  74;

MICHIGAN CITY* NOT AVBL
RENSSELAER*    NOT AVBL
VALPARAISO     CLEAR     61  54  77 SW5       29.81R
$$

LMZ740>746-290700-
SOUTHERN LAKE MICHIGAN

STATION/POSITION TIME  SKY/WX   TEMP WIND        PRES    VSBY
                                AIR  DIR/SP/G
                 (UTC)          (F)  (DEG/KT/KT) (MB)    (MI)
HARRISON CRIB    0540            70  240/  6/  7   N/A
BURNHAM HARBOR   0600            66  190/  4/  5   N/A
CALUMET HARBOR   0548                210/  4/  5 1007.8R
BURNS HARBOR     0540            64  190/  6/  8 1008.8S
MICHIGAN CITY    0540            64  190/  7/  7   N/A
$$

ABBREVIATIONS USED IN REMARKS
   TC - TEMPERATURE IN CELSIUS
  WCI - WIND CHILL INDEX
   HX - HEAT INDEX
  VSB - VISIBILITY
$$




USA.gov is the U.S. government's official web portal to all federal, state and local government web resources and services.